Location: Arroyo Grande
(40.2671°N, 4.2512°W)
Time: 03:05:05
(UTC+00:00)

Lacrosse 5 rocket - Pass Details

Date: 03 February 2023
Orbit: 443 x 586 km, 57.0° (Epoch: 11 April)

Event Time Altitude Azimuth Distance (km) Brightness Sun altitude
Rises 19:23:04 0° 321° (NW) 2,455 5.1 -20.4°
Reaches altitude 10° 19:25:15 10° 330° (NNW) 1,595 4.0 -20.8°
Enters shadow 19:27:24 29° 356° (N) 877 2.3 -21.2°
